EDT,Max TemperatureF,Mean TemperatureF,Min TemperatureF,Max Dew PointF,MeanDew PointF,Min DewpointF,Max Humidity, Mean Humidity, Min Humidity, Max Sea Level PressureIn, Mean Sea Level PressureIn, Min Sea Level PressureIn, Max VisibilityMiles, Mean VisibilityMiles, Min VisibilityMiles, Max Wind SpeedMPH, Mean Wind SpeedMPH, Max Gust SpeedMPH,PrecipitationIn, CloudCover, Events, WindDirDegrees
2013-4-1,86,75,64,68,61,46,94,71,27,30.07,30.03,29.96,10,9,7,17,5,26,0.00,2,,236
2013-4-2,77,70,64,70,65,55,100,82,47,30.10,30.05,30.01,10,9,7,14,7,,0.00,0,,347
2013-4-3,82,76,71,70,66,61,83,76,48,30.10,30.06,30.01,10,9,7,17,9,25,0.00,3,,126
2013-4-4,82,76,69,72,68,64,94,85,54,30.07,30.00,29.94,10,9,1,14,7,20,0.00,3,Rain-Thunderstorm,160
2013-4-5,75,70,66,68,65,61,94,86,73,30.00,29.92,29.83,10,9,5,16,9,23,0.02,5,Rain-Thunderstorm,246
2013-4-6,77,68,59,64,59,54,94,77,47,30.12,30.03,29.95,10,10,7,18,10,28,0.00,4,,356
2013-4-7,77,72,68,63,58,55,78,64,47,30.17,30.11,30.07,10,10,7,16,10,21,0.00,2,,93
2013-4-8,80,70,60,64,60,55,94,71,45,30.16,30.12,30.08,10,10,10,14,5,18,0.00,2,,98
2013-4-9,80,76,71,68,64,50,88,73,46,30.20,30.13,30.08,10,9,6,18,9,23,0.00,3,Rain,107
2013-4-10,80,76,71,72,69,64,89,82,69,30.13,30.08,30.03,10,10,7,18,10,25,0.00,2,,118
2013-4-11,84,78,73,72,71,68,89,81,58,30.05,29.98,29.91,10,9,7,22,13,28,0.00,3,,142
2013-4-12,89,82,75,75,71,63,89,81,43,29.96,29.93,29.87,10,9,7,17,8,22,0.00,5,Rain-Thunderstorm,172
2013-4-13,84,78,73,75,72,70,94,88,66,29.99,29.94,29.91,10,9,5,14,5,,0.00,1,Rain-Thunderstorm,158
2013-4-14,86,78,69,75,72,68,100,87,62,29.99,29.96,29.91,10,8,5,23,4,21,0.00,2,,144
2013-4-15,89,78,68,73,68,50,94,83,44,30.08,30.02,29.95,10,9,3,22,4,29,0.00,4,Rain-Thunderstorm,290
2013-4-16,82,76,69,75,70,68,100,85,66,30.15,30.10,30.05,10,9,6,14,4,20,0.00,1,,64
2013-4-17,80,76,71,68,65,63,83,71,54,30.15,30.11,30.07,10,10,7,14,8,18,0.00,3,,65
2013-4-18,86,78,71,72,68,64,88,74,51,30.08,30.04,30.00,10,9,7,20,7,25,0.00,3,,124
2013-4-19,87,82,77,72,71,66,83,76,52,30.07,30.03,29.98,10,10,7,20,10,29,0.00,2,,150
2013-4-20,84,78,71,73,71,68,94,86,58,30.12,30.05,30.00,10,9,5,18,5,25,0.00,4,Rain,349
2013-4-21,82,76,69,73,71,68,94,86,66,30.12,30.08,30.02,10,9,7,16,6,23,0.07,4,Rain-Thunderstorm,59
2013-4-22,78,74,69,72,68,64,100,85,69,30.07,30.04,29.99,10,9,4,16,5,21,0.31,5,Rain-Thunderstorm,6
2013-4-23,80,76,73,66,62,55,73,64,48,30.12,30.05,29.99,10,10,7,17,11,23,0.00,3,,30
2013-4-24,80,76,71,63,58,55,73,57,45,30.17,30.12,30.07,10,10,10,14,9,18,0.00,3,,85
2013-4-25,80,74,68,63,59,55,73,59,45,30.23,30.17,30.11,10,9,7,12,8,,0.00,1,,90
2013-4-26,80,72,64,66,62,57,88,68,51,30.25,30.20,30.15,10,9,5,14,7,18,0.00,2,,77
2013-4-27,80,76,73,64,62,57,73,62,45,30.24,30.18,30.14,10,9,7,20,11,21,0.00,4,,91
2013-4-28,80,76,73,64,60,57,69,59,45,30.15,30.09,30.03,10,10,7,17,12,21,0.00,4,,104
2013-4-29,84,78,71,70,66,61,88,71,48,30.06,30.01,29.96,10,9,7,18,9,24,0.00,4,Rain-Thunderstorm,145
2013-4-30,80,76,71,72,70,68,94,87,65,30.03,29.99,29.95,10,9,5,14,2,20,0.00,3,Thunderstorm,151